This is the latest recevied weather packets stored in our database for station/object KA1STV. If no packets are shown the sender has not sent any weather packets the latest 10 day(s).
| Time | Temp. | Humidity | Pressure | Rain* | Wind** | Luminosity | Snow |
|---|---|---|---|---|---|---|---|
| 1776983184 | 17.78° C | 28% | 1008.4 hPa | 0 mm | - | 30 W/m² | - |
| 1776982882 | 17.78° C | 27% | 1008.2 hPa | 0 mm | - | 32 W/m² | - |
| 1776982579 | 18.33° C | 26% | 1008.4 hPa | 0 mm | - | 32 W/m² | - |
| 1776982274 | 18.33° C | 25% | 1008.3 hPa | 0 mm | - | 36 W/m² | - |
| 1776981969 | 18.33° C | 26% | 1008.4 hPa | 0 mm | - | 39 W/m² | - |
| 1776981665 | 18.89° C | 24% | 1008.1 hPa | 0 mm | - | 40 W/m² | - |
| 1776981360 | 18.89° C | 26% | 1008.2 hPa | 0 mm | - | 45 W/m² | - |
| 1776981056 | 18.89° C | 24% | 1008.4 hPa | 0 mm | - | 53 W/m² | - |
| 1776980752 | 19.44° C | 27% | 1008.1 hPa | 0 mm | - | 137 W/m² | - |
| 1776980450 | 18.89° C | 27% | 1007.8 hPa | 0 mm | - | 113 W/m² | - |
| 1776980145 | 18.89° C | 27% | 1008.4 hPa | 0 mm | - | 51 W/m² | - |
| 1776979842 | 18.89° C | 24% | 1008.1 hPa | 0 mm | - | 64 W/m² | - |
| 1776979538 | 19.44° C | 23% | 1008 hPa | 0 mm | - | 72 W/m² | - |
| 1776979233 | 19.44° C | 24% | 1008.1 hPa | 0 mm | - | 93 W/m² | - |
| 1776978932 | 19.44° C | 26% | 1008.1 hPa | 0 mm | - | 106 W/m² | - |
| 1776978627 | 19.44° C | 25% | 1008 hPa | 0 mm | - | 173 W/m² | - |
| 1776978326 | 19.44° C | 23% | 1008.2 hPa | 0 mm | - | 169 W/m² | - |
| 1776978023 | 19.44° C | 24% | 1007.9 hPa | 0 mm | - | 184 W/m² | - |
| 1776977721 | 20° C | 26% | 1008.4 hPa | 0 mm | - | 257 W/m² | - |
| 1776977415 | 20° C | 25% | 1008.2 hPa | 0 mm | - | 255 W/m² | - |
| 1776977112 | 19.44° C | 23% | 1008.1 hPa | 0 mm | - | 255 W/m² | - |
| 1776976809 | 20° C | 24% | 1008.1 hPa | 0 mm | - | 255 W/m² | - |
* Rain latest hour (hover to see other rain measurements)
** Current wind speed in m/s (hover to see current wind gust speed)